CAPE
0 0 0 0 0 0 0 0 0 0 0 0 0 0 0 0 0 0 0 0 0 0 0 1 1 1 1 1 1 1 2 1 2 1 1 1 0 0 0 0 0 0 0
0 0 0 0 0 0 0 0 0 0 0 0 0 0 0 0 0 0 0 0 0 1 0 1 0 1 1 1 1 2 2 1 1 2 1 2 0 0 0 1 0 0 0
0 0 0 0 0 0 0 0 0 0 0 0 0 0 0 0 0 0 0 0 0 0 0 0 0 0 1 1 0 3 2 1 2 2 1 0 0 0 0 1 0 0 0
0 0 0 0 0 0 0 1 0 0 0 0 0 0 0 0 0 0 0 0 0 0 0 0 0 0 1 1 1 1 0 1 2 2 1 1 0 0 1 0 1 0 0
0 0 0 0 0 0 0 0 0 0 0 0 0 0 0 0 0 0 0 0 0 0 0 0 0 0 0 1 0 0 0 1 2 3 1 0 0 0 0 1 0 0 0
0 0 0 0 0 0 0 0 0 0 0 0 0 0 0 0 0 0 0 0 0 0 0 0 0 0 0 0 0 0 1 1 1 2 2 2 2 0 1 1 1 0 0
0 0 0 0 0 0 0 0 0 0 0 0 0 0 0 0 0 0 0 0 0 0 0 0 0 0 0 0 0 0 0 0 1 0 0 1 0 0 1 1 1 1 1
0 0 0 0 0 0 0 0 0 0 0 0 0 0 0 0 0 0 0 0 0 0 0 0 0 0 0 0 0 0 0 0 0 0 0 0 0 0 1 2 0 0 0
0 0 0 0 0 0 0 0 0 0 0 0 0 0 0 0 0 0 0 0 0 0 0 0 0 0 0 0 0 0 0 0 0 0 0 0 0 0 0 0 0 0 0
0 0 0 0 0 0 0 0 0 0 0 0 0 0 0 0 0 0 0 0 0 0 0 0 0 0 0 0 0 0 0 0 0 0 0 0 0 0 0 0 0 0 0
0 0 0 0 0 0 0 0 0 0 0 0 0 0 0 0 0 0 0 0 0 0 0 0 0 0 0 0 0 0 0 0 0 0 0 0 0 0 0 0 0 0 0
0 0 0 0 0 0 0 0 0 0 0 0 0 0 0 0 0 0 0 0 0 0 0 0 0 0 0 0 0 0 0 0 0 0 0 0 0 0 0 0 0 0 0
0 0 0 0 0 0 0 0 0 0 0 0 0 0 0 0 0 0 0 0 0 0 0 0 0 0 0 0 0 0 0 0 0 0 0 0 0 0 0 0 0 0 0
0 0 0 0 0 0 0 0 0 0 0 0 0 0 0 0 0 0 0 0 0 0 0 0 0 0 0 0 0 0 0 0 0 0 0 0 0 0 0 0 0 0 0
0 0 0 0 0 0 0 0 0 0 0 0 0 0 0 0 0 0 0 0 0 0 0 0 0 0 0 0 0 0 0 0 0 0 0 0 0 0 0 0 0 0 0
0 0 0 0 0 0 0 0 0 0 1 3 3 1 0 0 0 0 0 1 1 1 0 0 0 0 0 0 0 0 0 0 0 0 0 0 0 0 0 0 0 0 0
0 0 0 0 0 0 0 0 0 0 0 0 0 0 0 1 1 0 0 0 0 3 0 0 0 0 0 0 0 0 0 0 0 0 0 0 0 0 0 0 0 0 0
0 0 0 0 0 0 0 0 0 0 0 0 0 0 0 0 1 1 0 0 0 0 0 0 0 0 0 0 0 0 0 0 0 0 0 0 0 0 0 0 0 0 0
0 0 0 0 0 0 0 0 0 0 0 0 0 0 0 0 0 0 0 0 0 0 0 0 0 0 0 0 0 0 0 0 0 0 0 0 0 0 0 0 0 0 0
0 0 0 0 0 0 0 0 0 0 0 0 0 0 0 0 0 0 0 0 0 0 0 0 0 0 0 0 0 0 0 0 0 0 0 0 0 0 0 0 0 0 0
0 0 0 0 0 0 0 0 0 0 0 0 0 0 0 0 0 0 0 0 0 0 0 0 0 0 0 0 0 0 0 0 0 0 0 0 0 0 0 0 0 0 0
0 0 0 0 0 0 0 0 0 0 0 0 0 0 0 0 0 0 0 0 0 0 0 0 0 0 0 0 0 0 0 0 0 0 0 0 0 0 0 0 0 0 0
0 0 0 0 0 0 0 0 0 0 0 0 0 0 0 0 0 0 0 0 0 0 0 0 0 0 0 0 0 0 0 0 0 0 0 0 0 0 0 0 0 0 0
0 0 0 0 0 0 0 0 0 0 0 0 0 0 0 0 0 0 0 0 0 0 0 0 0 0 0 0 0 0 0 0 0 0 0 0 0 0 0 0 0 0 0
0 0 0 0 0 0 0 0 0 0 0 0 0 0 0 0 0 0 0 0 0 0 0 0 0 0 0 0 0 0 0 0 0 0 0 0 0 0 0 0 0 0 0
0 0 0 0 0 0 0 0 0 0 0 0 0 0 0 0 0 0 0 0 0 0 0 0 0 0 0 0 0 0 0 0 0 0 0 0 0 0 0 0 0 0 0
CIN
-0 -0 -0 -0 -0 -0 -0 -0 -0 -0 -0 -0 -0 -0 -0 -0 -0 -0 -0 -0 -0 -0 -0 -0 -0 -0 -0 -0 -0 -0 -0 -0 -0 -0 -0 -1 -0 -0 -0 -0 -0 -0 -0
-0 -0 -0 -0 -0 -0 -0 -0 -0 -0 -0 -0 -0 -0 -0 -0 -0 -0 -0 -0 -0 -0 -0 -0 -0 -0 -0 -0 -0 -0 -0 -0 -0 -0 -0 -0 -0 -0 -0 -0 -0 -0 -0
-0 -0 -0 -0 -0 -0 -0 -0 -0 -0 -0 -0 -0 -0 -0 -0 -0 -0 -0 -0 -0 -0 -0 -0 -0 -0 -0 -0 -0 -0 -0 -0 -0 -0 -0 -0 -0 -0 -0 -0 -0 -0 -0
-0 -0 -0 -0 -0 -0 -0 -0 -0 -0 -0 -0 -0 -0 -0 -0 -0 -0 -0 -0 -0 -0 -0 -0 -0 -0 -0 -0 -0 -0 -0 -0 -0 -0 -0 -0 -0 -0 -0 -0 -0 -0 -0
-0 -0 -0 -0 -0 -0 -0 -0 -0 -0 -0 -0 -0 -0 -0 -0 -0 -0 -0 -0 -0 -0 -0 -0 -0 -0 -0 -0 -0 -0 -0 -0 -0 -0 -0 -0 -0 -0 -0 -0 -0 -0 -0
-0 -0 -0 -0 -0 -0 -0 -0 -0 -0 -0 -0 -0 -0 -0 -0 -0 -0 -0 -0 -0 -0 -0 -0 -0 -0 -0 -0 -0 -0 -0 -0 -0 -0 -0 -0 -0 -0 -0 -0 -0 -0 -0
-0 -0 -0 -0 -0 -0 -0 -0 -0 -0 -0 -0 -0 -0 -0 -0 -0 -0 -0 -0 -0 -0 -0 -0 -0 -0 -0 -0 -0 -0 -0 -0 -0 -0 -0 -0 -0 -0 -0 -0 -0 -0 -0
-0 -0 -0 -0 -0 -0 -0 -0 -0 -0 -0 -0 -0 -0 -0 -0 -0 -0 -0 -0 -0 -0 -0 -0 -0 -0 -0 -0 -0 -0 -0 -0 -0 -0 -0 -0 -0 -0 -0 -0 -0 -0 -0
-0 -0 -0 -0 -0 -0 -0 -0 -0 -0 -0 -0 -0 -0 -0 -0 -0 -0 -0 -0 -0 -0 -0 -0 -0 -0 -0 -0 -0 -0 -0 -0 -0 -0 -0 -0 -0 -0 -0 -0 -0 -0 -0
-0 -0 -0 -0 -0 -0 -0 -0 -0 -0 -0 -0 -0 -0 -0 -0 -0 -0 -0 -0 -0 -0 -0 -0 -0 -0 -0 -0 -0 -0 -0 -0 -0 -0 -0 -0 -0 -0 -0 -0 -0 -0 -0
-0 -0 -0 -0 -0 -0 -0 -0 -0 -0 -0 -0 -0 -0 -0 -0 -0 -0 -0 -0 -0 -0 -0 -0 -0 -0 -0 -0 -0 -0 -0 -0 -0 -0 -0 -0 -0 -0 -0 -0 -0 -0 -0
-0 -0 -0 -0 -0 -0 -0 -0 -0 -0 -0 -0 -0 -0 -0 -0 -0 -0 -0 -0 -0 -0 -0 -0 -0 -0 -0 -0 -0 -0 -0 -0 -0 -0 -0 -0 -0 -0 -0 -0 -0 -0 -0
-0 -0 -0 -0 -0 -0 -0 -0 -0 -0 -0 -0 -0 -0 -0 -0 -0 -0 -0 -0 -0 -0 -0 -0 -0 -0 -0 -0 -0 -0 -0 -0 -0 -0 -0 -0 -0 -0 -0 -0 -0 -0 -0
-0 -0 -0 -0 -0 -0 -0 -0 -0 -0 -0 -0 -0 -0 -0 -0 -0 -0 -0 -0 -0 -0 -0 -0 -0 -0 -0 -0 -0 -0 -0 -0 -0 -0 -0 -0 -0 -0 -0 -0 -0 -0 -0
-0 -0 -0 -0 -0 -0 -0 -0 -0 -0 -0 -0 -0 -0 -0 -0 -0 -0 -0 -0 -0 -0 -0 -0 -0 -0 -0 -0 -0 -0 -0 -0 -0 -0 -0 -0 -0 -0 -0 -0 -0 -0 -0
-0 -0 -0 -0 -0 -0 -0 -0 -0 -0 -0 -0 -0 -0 -0 -0 -0 -0 -0 -1 -1 -1 -0 -0 -0 -0 -0 -0 -0 -0 -0 -0 -0 -0 -0 -0 -0 -0 -0 -0 -0 -0 -0
-0 -0 -0 -0 -0 -0 -0 -0 -0 -0 -0 -0 -0 -0 -0 -0 -0 -0 -0 -0 -2 -1 -2 -0 -0 -0 -0 -0 -0 -0 -0 -0 -0 -0 -0 -0 -0 -0 -0 -0 -0 -0 -0
-0 -0 -0 -0 -0 -0 -0 -0 -0 -0 -0 -0 -0 -0 -0 -0 -0 -0 -0 -0 -0 -0 -0 -0 -0 -0 -0 -0 -0 -0 -0 -0 -0 -0 -0 -0 -0 -0 -0 -0 -0 -0 -0
-0 -0 -0 -0 -0 -0 -0 -0 -0 -0 -0 -0 -0 -0 -0 -0 -0 -0 -0 -0 -0 -0 -0 -0 -0 -0 -0 -0 -0 -0 -0 -0 -0 -0 -0 -0 -0 -0 -0 -0 -0 -0 -0
-0 -0 -0 -0 -0 -0 -0 -0 -0 -0 -0 -0 -0 -0 -0 -0 -0 -0 -0 -0 -0 -0 -0 -0 -0 -0 -0 -0 -0 -0 -0 -0 -0 -0 -0 -0 -0 -0 -0 -0 -0 -0 -0
-0 -0 -0 -0 -0 -0 -0 -0 -0 -0 -0 -0 -0 -0 -2 -0 -0 -0 -0 -0 -0 -0 -0 -0 -0 -0 -0 -0 -0 -0 -0 -0 -0 -0 -0 -0 -0 -0 -0 -0 -0 -0 -0
-0 -0 -0 -0 -0 -0 -0 -0 -0 -0 -0 -0 -0 -0 -0 -0 -0 -0 -0 -0 -0 -0 -0 -0 -0 -0 -0 -0 -0 -0 -0 -0 -0 -0 -0 -0 -0 -0 -0 -0 -0 -0 -0
-0 -0 -0 -0 -0 -0 -0 -0 -0 -0 -0 -0 -0 -0 -0 -0 -0 -0 -0 -0 -0 -0 -0 -0 -0 -0 -0 -0 -0 -0 -0 -0 -0 -0 -0 -0 -0 -0 -0 -0 -0 -0 -0
-0 -0 -0 -0 -0 -0 -0 -0 -0 -0 -0 -0 -0 -0 -0 -0 -0 -0 -0 -0 -0 -0 -0 -0 -0 -0 -0 -0 -0 -0 -0 -0 -0 -0 -0 -0 -0 -0 -0 -0 -0 -0 -0
-0 -0 -0 -0 -0 -0 -0 -0 -0 -0 -0 -0 -0 -0 -0 -0 -0 -0 -0 -0 -0 -0 -0 -0 -0 -0 -0 -0 -0 -0 -0 -0 -0 -0 -0 -0 -0 -0 -0 -0 -0 -0 -0
-0 -0 -0 -0 -0 -0 -0 -0 -0 -0 -0 -0 -0 -0 -0 -0 -0 -0 -0 -0 -0 -0 -0 -0 -0 -0 -0 -0 -0 -0 -0 -0 -0 -0 -0 -0 -0 -0 -0 -0 -0 -0 -0
Wind_Speed
23 23 23 22 21 22 22 22 24 21 13 15 16 15 16 18 18 17 17 17 17 17 17 17 16 16 16 16 15 15 12 11 15 41 42 41 41 38 35 33 32 33 33
23 22 22 22 23 22 22 21 21 6 9 12 13 15 17 16 15 16 17 18 19 19 18 17 16 15 15 14 13 11 9 9 12 23 42 40 37 35 33 32 29 30 31
22 22 22 23 23 23 24 21 10 7 9 12 13 14 15 14 16 16 17 19 21 20 19 18 16 15 14 14 12 12 10 8 7 8 13 32 32 32 32 32 34 31 31
22 22 24 23 24 24 21 20 15 11 13 14 15 15 15 16 17 17 17 19 23 23 22 19 17 16 15 14 12 10 10 9 9 7 7 28 29 27 30 31 30 27 31
24 24 25 25 25 25 21 19 12 11 13 14 16 16 16 16 16 17 18 19 21 21 21 21 19 18 15 14 13 12 11 10 6 4 20 18 24 29 31 26 29 30 30
23 25 26 25 26 26 24 18 15 14 14 14 14 15 16 16 16 16 17 18 19 20 20 20 20 19 18 17 14 13 14 12 11 7 24 28 27 29 30 31 30 29 30
24 26 27 28 28 27 25 21 17 17 18 17 16 15 15 15 16 16 16 17 17 18 18 19 20 19 19 19 18 16 15 12 14 17 13 27 30 29 30 30 28 29 30
27 28 28 29 30 29 26 22 20 19 18 19 18 17 18 17 17 16 17 17 17 17 17 18 18 19 20 19 20 20 17 16 14 15 26 27 27 27 25 23 22 23 26
30 31 32 32 33 32 30 26 23 23 22 21 20 20 20 20 19 19 19 18 18 17 17 17 17 18 18 20 19 20 20 17 17 15 19 25 25 25 25 24 22 22 22
33 34 34 34 34 33 32 30 28 26 25 25 24 22 21 22 21 20 20 19 19 19 19 17 17 17 19 18 18 18 19 18 19 20 18 18 24 24 24 22 21 23 22
35 36 37 36 36 35 34 31 30 29 28 28 28 26 24 23 23 22 21 20 19 20 21 21 20 20 20 20 20 18 17 18 18 20 19 20 21 22 23 22 22 22 23
36 37 37 37 37 36 35 34 32 32 32 32 31 30 28 26 24 24 23 21 20 21 21 21 22 22 22 21 21 20 20 19 19 21 22 21 21 22 23 23 22 22 23
37 37 37 37 36 35 35 35 34 33 33 34 33 33 32 30 27 27 26 25 22 22 22 23 24 24 24 24 24 24 23 21 20 21 21 21 21 23 25 25 24 25 25
37 37 37 37 36 35 34 33 32 32 32 32 32 33 32 31 31 30 29 28 27 26 26 26 26 25 25 25 27 27 26 24 22 21 22 22 23 22 24 25 27 28 27
34 34 35 34 35 35 34 33 32 30 30 31 31 30 31 32 30 28 29 28 26 25 26 26 27 28 30 30 29 30 29 27 24 22 22 23 24 24 25 24 24 25 26
34 33 33 34 34 34 33 34 31 31 32 30 28 28 27 24 26 27 27 27 27 26 26 27 29 29 31 32 33 33 32 31 29 27 25 25 26 26 27 26 26 27 28
33 34 33 34 34 34 34 34 35 34 32 31 30 31 31 31 32 29 26 26 26 26 27 29 30 31 32 33 33 33 31 30 29 30 29 29 28 28 28 29 28 28 30
33 33 33 33 33 33 33 33 33 33 34 34 31 31 30 30 30 29 28 28 28 26 28 29 31 32 32 32 31 31 31 32 32 32 31 30 30 30 30 31 31 31 29
33 33 33 33 33 32 32 32 32 32 32 32 31 31 32 31 30 29 28 27 27 27 27 28 28 28 29 29 30 30 31 31 30 30 29 28 28 27 27 26 26 25 25
33 33 33 32 32 32 32 32 32 32 31 31 31 31 31 31 30 29 28 27 27 27 27 27 27 27 28 27 27 27 27 26 25 25 23 23 23 23 23 23 23 24 24
32 32 31 31 31 31 31 31 31 31 31 32 31 31 32 30 30 30 30 29 28 28 28 28 28 27 27 27 26 26 25 25 25 24 23 22 22 21 21 21 22 22 23
31 31 30 30 30 30 30 30 31 31 32 32 32 32 32 31 31 31 31 30 29 29 28 29 29 28 27 27 27 26 26 26 25 24 23 22 22 22 22 23 23 23 23
30 30 30 30 30 30 31 31 32 33 33 34 34 34 34 34 34 33 33 32 32 31 30 29 29 30 28 27 26 26 26 26 25 24 24 23 23 23 23 23 23 23 23
30 30 30 31 31 32 33 34 35 35 35 36 37 37 37 37 37 36 35 34 33 33 32 31 30 30 29 28 27 25 24 25 24 23 23 23 23 22 21 22 22 22 22
31 31 31 32 33 34 36 36 37 37 38 39 39 39 39 39 38 37 36 36 35 34 34 32 31 30 29 28 27 26 25 24 23 22 21 20 20 20 20 22 21 20 20
32 32 33 34 35 36 37 38 39 39 40 40 41 41 41 40 39 38 38 37 36 35 34 33 32 31 29 28 26 25 24 22 21 19 18 18 18 18 19 19 18 17 16
Wind_Direction
272 274 278 280 287 291 300 301 295 316 3 359 356 360 359 358 1 1 0 358 355 353 351 348 344 345 343 342 340 335 326 316 278 282 298 296 287 280 279 290 288 286 286
263 274 280 282 282 294 296 306 310 64 37 14 10 4 2 9 12 11 10 9 6 1 359 355 353 356 351 352 349 341 328 317 276 270 283 290 286 281 280 288 294 289 289
278 283 285 276 283 285 288 311 17 52 34 14 13 12 12 15 13 13 14 12 10 9 7 5 4 5 1 1 359 355 348 328 305 284 262 280 283 283 282 289 294 290 290
285 285 273 278 284 283 309 317 349 16 5 4 3 3 5 4 3 6 8 9 10 12 14 15 15 14 11 7 2 354 351 344 347 350 269 265 257 260 283 290 292 300 292
276 275 274 278 285 288 310 327 359 9 360 359 356 358 357 358 0 1 2 2 4 9 15 19 22 22 21 17 14 11 7 2 345 277 252 244 251 281 296 314 301 301 298
296 288 284 289 289 289 303 326 342 348 348 351 353 353 353 355 355 356 359 0 1 3 7 12 17 21 23 25 26 26 29 24 18 19 334 270 262 276 298 293 302 306 295
301 295 291 291 291 295 306 317 330 333 334 339 342 345 346 348 350 351 352 354 358 358 0 4 9 17 20 24 28 32 34 37 34 18 353 279 279 299 302 303 311 296 290
296 297 295 295 293 299 307 315 321 325 328 329 332 335 335 338 341 344 346 347 350 354 355 357 1 6 12 20 23 26 32 39 44 42 340 311 306 309 328 333 335 326 310
298 298 294 297 296 299 303 309 313 316 318 320 323 325 327 329 332 334 336 338 340 344 349 352 354 358 2 6 14 19 23 31 37 43 24 340 329 327 328 329 332 329 321
300 299 298 298 300 300 303 305 307 309 311 313 315 317 319 320 324 325 327 328 329 333 338 343 346 349 351 356 1 5 10 16 18 20 27 24 351 338 338 339 331 326 324
302 301 301 301 300 302 303 305 305 305 306 306 307 310 311 313 316 318 318 318 319 323 326 330 335 339 341 343 345 351 355 358 2 2 5 3 1 354 345 341 336 331 325
305 304 304 305 305 305 304 304 304 304 303 303 303 304 306 308 310 313 313 311 312 314 317 322 326 328 330 333 335 338 340 343 345 346 346 348 349 347 344 340 339 335 323
307 307 308 309 310 309 307 306 306 305 304 304 303 302 303 306 308 309 309 309 307 308 311 314 318 320 321 324 327 329 330 332 333 334 335 336 336 333 330 328 328 324 323
310 310 311 311 311 312 313 312 311 310 309 308 306 304 304 304 304 307 307 307 306 305 308 310 313 314 316 318 320 322 323 325 326 327 328 328 329 330 327 325 320 317 318
317 317 317 317 316 315 316 315 314 314 313 312 312 311 308 306 307 307 307 307 307 307 308 309 309 310 310 312 313 314 316 317 317 320 321 321 321 322 321 323 321 319 315
321 322 321 321 322 321 320 320 324 320 318 316 316 314 313 310 310 308 307 306 305 306 304 304 305 307 308 309 310 311 312 311 311 312 313 314 313 313 315 316 315 313 311
324 323 323 322 322 322 324 323 321 323 326 324 323 321 319 319 319 316 310 309 307 306 302 303 304 306 307 308 308 309 309 312 312 310 309 308 308 308 309 309 310 311 310
326 326 327 327 327 326 326 325 326 327 327 327 329 328 328 326 324 323 321 317 312 311 310 308 308 308 308 308 308 308 309 309 310 309 308 308 307 305 305 305 305 306 306
326 327 326 326 328 329 330 330 331 331 331 331 332 333 331 330 330 329 328 324 321 318 317 316 315 315 314 313 311 311 311 310 310 310 309 308 307 307 308 309 311 312 312
328 328 329 329 330 330 331 332 332 333 334 334 333 334 336 336 334 333 334 332 329 327 326 324 323 323 321 320 320 320 319 319 320 319 319 318 317 317 315 315 315 314 315
329 330 331 332 332 332 333 333 334 334 334 334 334 334 335 336 334 333 332 332 331 330 329 328 327 326 325 325 324 323 322 322 322 322 321 320 320 319 320 320 319 318 317
330 330 331 331 332 332 333 334 334 334 333 332 332 332 333 333 332 331 330 329 328 328 327 325 323 323 323 322 321 321 320 320 320 321 320 320 319 319 318 317 317 316 316
331 329 329 329 330 330 331 331 331 330 329 329 329 328 328 327 327 326 325 325 324 324 324 323 321 320 320 320 320 319 317 317 318 318 317 316 316 316 317 317 317 318 318
330 329 327 327 327 327 326 326 326 325 325 324 324 323 323 323 322 322 322 322 322 321 321 320 319 318 317 316 316 315 314 315 316 315 315 315 314 315 316 315 316 317 318
328 327 326 325 324 323 323 322 322 321 321 321 320 320 320 320 320 320 320 320 320 319 318 318 317 316 315 315 313 313 312 311 311 311 310 310 310 311 313 313 314 316 318
325 324 323 323 322 322 321 320 320 320 319 319 319 319 318 318 318 318 319 318 318 317 317 316 315 315 314 313 312 311 310 309 308 307 307 306 306 308 310 311 313 315 318